Location: Chippewa Lake
(41.0698°N, 81.9010°W)
Time: 16:52:23
(UTC+00:00)

Spot 2 Rocket - Visible Passes

Search period start: 26 September 2021 00:00
Search period end: 06 October 2021 00:00
Orbit: 757 x 772 km, 98.5° (Epoch: 26 September)

Date Brightness Start Highest point End Pass type
(mag) Time Alt. Az. Time Alt. Az. Time Alt. Az.
26 Sep 6.0 02:57:42 16° NNW 02:57:42 16° NNW 02:58:39 10° NNW visible
27 Sep 5.8 02:20:26 16° N 02:20:26 16° N 02:21:27 10° N visible
28 Sep 5.8 01:43:10 12° NNE 01:43:10 12° NNE 01:43:36 10° NNE visible
28 Sep 6.4 03:23:22 12° NNW 03:23:22 12° NNW 03:23:40 10° NNW visible
29 Sep 6.1 02:46:06 14° N 02:46:06 14° N 02:46:48 10° N visible
30 Sep 5.9 02:08:50 13° N 02:08:50 13° N 02:09:25 10° N visible
01 Oct 6.4 03:11:46 11° NNW 03:11:46 11° NNW 03:11:55 10° NNW visible
02 Oct 6.1 02:34:30 12° N 02:34:30 12° N 02:34:53 10° N visible
03 Oct 6.0 01:57:14 10° NNE 01:57:14 10° NNE 01:57:19 10° NNE visible
05 Oct 6.2 02:22:54 10° N 02:22:54 10° N 02:22:55 10° N visible
